FW7828 Weather Reports


time (UTC)temp
F
wind
direction
speed
knots
gust
knots
rain 1hr
in
rain 24hr
in
rain mn
in
humidity
%
barometer
mb
20260903182504 93 172 0.9 1.7 0.00 0.00 0.00 68 1014.7
20260903182000 93 256 0.0 0.0 0.00 0.00 0.00 68 1014.8
20260903181454 93 199 0.9 0.9 0.00 0.00 0.00 69 1014.6
20260903180953 93 156 0.9 1.7 0.00 0.00 0.00 68 1014.6
20260903180448 95 155 0.9 0.9 0.00 0.00 0.00 67 1014.6
20260903175948 95 149 1.7 1.7 0.00 0.00 0.00 66 1014.9
20260903175442 95 190 1.7 1.7 0.00 0.00 0.00 65 1014.9
20260903174941 93 105 0.0 0.0 0.00 0.00 0.00 66 1014.8
20260903174437 92 105 0.9 0.9 0.00 0.00 0.00 72 1015.1
20260903173936 92 150 2.6 4.3 0.00 0.00 0.00 69 1015.2
20260903173431 91 227 2.6 2.6 0.00 0.00 0.00 71 1015.1
20260903172927 91 162 0.9 0.9 0.00 0.00 0.00 72 1015.1
20260903172422 91 103 1.7 1.7 0.00 0.00 0.00 71 1015.2
20260903171918 91 146 2.6 2.6 0.00 0.00 0.00 70 1015.4
20260903171413 91 139 2.6 5.2 0.00 0.00 0.00 70 1015.3
20260903170912 91 149 1.7 1.7 0.00 0.00 0.00 70 1015.5
20260903170408 90 175 0.9 0.9 0.00 0.00 0.00 73 1015.7
20260903165906 90 151 0.9 1.7 0.00 0.00 0.00 74 1015.4
20260903165401 89 140 1.7 1.7 0.00 0.00 0.00 75 1015.6
20260903164855 89 146 2.6 2.6 0.00 0.00 0.00 75 1015.8
20260903164351 89 157 1.7 1.7 0.00 0.00 0.00 76 1015.6
20260903163850 89 136 0.9 1.7 0.00 0.00 0.00 76 1015.8
20260903163346 90 292 0.0 0.9 0.00 0.00 0.00 75 1015.7
20260903162842 90 155 1.7 1.7 0.00 0.00 0.00 76 1015.7
20260903162339 90 226 1.7 2.6 0.00 0.00 0.00 75 1015.5
20260903161834 90 248 0.0 0.9 0.00 0.00 0.00 76 1015.8
20260903161329 89 125 0.0 0.9 0.00 0.00 0.00 76 1016.0
20260903160825 89 87 2.6 4.3 0.00 0.00 0.00 75 1016.0
20260903160324 89 156 0.0 0.0 0.00 0.00 0.00 75 1016.1
20260903155822 88 179 0.9 0.9 0.00 0.00 0.00 76 1016.0
20260903155318 88 144 1.7 2.6 0.00 0.00 0.00 77 1016.2
20260903154813 88 136 2.6 2.6 0.00 0.00 0.00 77 1016.0
20260903154309 88 145 2.6 2.6 0.00 0.00 0.00 77 1016.2
20260903153805 88 129 2.6 2.6 0.00 0.00 0.00 76 1016.2
20260903153300 87 100 0.9 0.9 0.00 0.00 0.00 77 1016.3
20260903152756 87 80 1.7 1.7 0.00 0.00 0.00 78 1016.5
20260903152252 87 120 0.9 0.9 0.00 0.00 0.00 78 1016.3
20260903151752 87 128 1.7 1.7 0.00 0.00 0.00 77 1016.5
20260903151247 87 138 1.7 2.6 0.00 0.00 0.00 78 1016.5
20260903150748 87 120 0.9 0.9 0.00 0.00 0.00 78 1016.1
20260903150242 86 109 0.9 1.7 0.00 0.00 0.00 78 1016.4
20260903145737 86 131 2.6 2.6 0.00 0.00 0.00 77 1016.4
20260903145232 86 118 0.0 0.0 0.00 0.00 0.00 78 1016.2
20260903144731 86 176 1.7 1.7 0.00 0.00 0.00 80 1016.3
20260903144227 85 162 1.7 2.6 0.00 0.00 0.00 81 1016.2
20260903143723 84 166 0.9 0.9 0.00 0.00 0.00 82 1016.4
20260903143219 84 183 1.7 2.6 0.00 0.00 0.00 81 1016.4
20260903142714 83 114 1.7 1.7 0.00 0.00 0.00 82 1016.2
20260903142211 83 152 2.6 2.6 0.00 0.00 0.00 81 1016.2
20260903141706 83 141 0.0 0.9 0.00 0.00 0.00 82 1016.4
20260903141201 83 144 2.6 4.3 0.00 0.00 0.00 81 1016.3
20260903140657 83 15 0.9 0.9 0.00 0.00 0.00 82 1016.2
20260903140151 82 165 1.7 1.7 0.00 0.00 0.00 83 1016.2
20260903135647 82 154 0.0 0.9 0.00 0.00 0.00 83 1016.1
20260903135142 82 166 1.7 2.6 0.00 0.00 0.00 83 1016.0
20260903134641 82 121 0.0 0.0 0.00 0.00 0.00 83 1015.9
20260903134137 82 138 1.7 2.6 0.00 0.00 0.00 83 1015.9
20260903133635 82 210 0.9 1.7 0.00 0.00 0.00 83 1015.9
20260903133131 82 163 1.7 1.7 0.00 0.00 0.00 83 1016.1
20260903132630 82 102 0.9 1.7 0.00 0.00 0.00 82 1016.0
20260903132125 81 200 0.9 1.7 0.00 0.00 0.00 85 1016.0
20260903131620 81 171 1.7 1.7 0.00 0.00 0.00 84 1016.2
20260903131119 81 42 0.0 0.9 0.00 0.00 0.00 85 1016.3
20260903130616 81 86 0.9 2.6 0.00 0.00 0.00 86 1016.3
20260903130108 81 33 0.9 0.9 0.00 0.00 0.00 87 1016.2
20260903125607 81 25 0.9 0.9 0.00 0.00 0.00 87 1016.3
20260903125057 81 142 0.9 0.9 0.00 0.00 0.00 87 1016.2
20260903124557 80 223 1.7 1.7 0.00 0.00 0.00 88 1016.3
20260903124056 80 177 0.0 0.9 0.00 0.00 0.00 89 1016.4
20260903123556 80 140 0.9 0.9 0.00 0.00 0.00 90 1016.5
20260903123055 79 118 0.0 0.0 0.00 0.00 0.00 90 1016.7
20260903122549 79 176 0.0 0.0 0.00 0.00 0.00 91 1016.4
20260903122049 79 204 0.0 0.0 0.00 0.00 0.00 92 1016.3
20260903121543 78 322 0.0 0.0 0.00 0.00 0.00 93 1016.4
20260903121039 78 172 0.0 0.0 0.00 0.00 0.00 94 1016.5
20260903120537 78 15 0.0 0.0 0.00 0.00 0.00 94 1016.4
20260903120032 78 312 0.0 0.9 0.00 0.00 0.00 95 1016.4
20260903115531 78 346 0.0 0.0 0.00 0.00 0.00 95 1016.4
20260903115026 78 295 0.0 0.0 0.00 0.00 0.00 95 1016.3
20260903114521 77 327 0.0 0.0 0.00 0.00 0.00 95 1016.3
20260903114017 77 335 0.0 0.0 0.00 0.00 0.00 95 1016.1
20260903113512 77 315 0.0 0.0 0.00 0.00 0.00 95 1016.3
20260903113008 77 279 0.0 0.0 0.00 0.00 0.00 95 1016.1
20260903112504 77 286 0.0 0.0 0.00 0.00 0.00 95 1015.9
20260903112003 77 280 0.0 0.0 0.00 0.00 0.00 95 1016.0
20260903111457 77 276 0.0 0.0 0.00 0.00 0.00 95 1015.8
20260903110954 77 337 0.0 0.0 0.00 0.00 0.00 95 1015.9
20260903110449 77 324 0.0 0.0 0.00 0.00 0.00 95 1015.8
20260903105943 77 274 0.0 0.0 0.00 0.00 0.00 95 1015.6
20260903105438 77 342 0.0 0.0 0.00 0.00 0.00 95 1015.7
20260903104938 77 338 0.0 0.0 0.00 0.00 0.00 95 1015.5
20260903104437 77 312 0.0 0.0 0.00 0.00 0.00 95 1015.3
20260903103935 77 338 0.0 0.0 0.00 0.00 0.00 95 1015.2
20260903103430 77 274 0.0 0.0 0.00 0.00 0.00 95 1015.5
20260903102926 77 233 0.0 0.0 0.00 0.00 0.00 96 1015.3
20260903102421 77 335 0.0 0.0 0.00 0.00 0.00 96 1015.3
20260903101920 77 274 0.0 0.0 0.00 0.00 0.00 96 1015.3
20260903101415 77 318 0.0 0.0 0.00 0.00 0.00 96 1015.5
20260903100910 77 297 0.0 0.0 0.00 0.00 0.00 96 1015.3
20260903100405 77 344 0.0 0.0 0.00 0.00 0.00 96 1015.3
20260903095902 77 8 0.0 0.0 0.00 0.00 0.00 96 1015.4
20260903095357 77 242 0.0 0.0 0.00 0.00 0.00 96 1015.2
20260903094852 77 264 0.0 0.0 0.00 0.00 0.00 96 1015.1
20260903094351 76 304 0.0 0.0 0.00 0.00 0.00 96 1015.3
20260903093847 77 10 0.0 0.0 0.00 0.00 0.00 96 1015.2
20260903093343 76 325 0.9 0.9 0.00 0.00 0.00 96 1015.2
20260903092838 76 255 0.9 0.9 0.00 0.00 0.00 96 1015.1
20260903092332 76 23 0.0 0.0 0.00 0.00 0.00 96 1015.0
20260903091831 76 359 0.0 0.0 0.00 0.00 0.00 96 1015.4
20260903091325 76 356 0.0 0.0 0.00 0.00 0.00 96 1015.2
20260903090820 76 336 0.0 0.0 0.00 0.00 0.00 96 1015.2
20260903090321 76 344 0.0 0.0 0.00 0.00 0.00 96 1015.1
20260903085819 76 344 0.0 0.0 0.00 0.00 0.00 96 1014.9
20260903085313 76 345 0.0 0.0 0.00 0.00 0.00 96 1015.1
20260903084812 76 347 0.0 0.0 0.00 0.00 0.00 96 1014.9
20260903084311 76 347 0.0 0.0 0.00 0.00 0.00 96 1015.1
20260903083807 76 347 0.0 0.0 0.00 0.00 0.00 96 1015.0
20260903083302 76 340 0.0 0.0 0.00 0.00 0.00 96 1014.7
20260903082801 76 336 0.0 0.0 0.00 0.00 0.00 96 1015.0
20260903082257 76 347 0.0 0.0 0.00 0.00 0.00 96 1014.9
20260903081756 76 344 0.0 0.0 0.00 0.00 0.00 96 1014.9
20260903081252 76 355 0.0 0.0 0.00 0.00 0.00 96 1014.8
20260903080748 77 352 0.0 0.0 0.00 0.00 0.00 96 1014.9
20260903080246 77 332 0.0 0.0 0.00 0.00 0.00 96 1014.8
20260903075745 77 332 0.0 0.0 0.00 0.00 0.00 96 1015.2
20260903075240 77 283 0.0 0.0 0.00 0.00 0.00 96 1014.9
20260903074739 77 347 0.0 0.0 0.00 0.00 0.00 96 1015.1
20260903074234 77 313 0.0 0.0 0.00 0.00 0.00 96 1015.0
20260903073730 77 351 0.0 0.0 0.00 0.00 0.00 96 1015.0
20260903073225 77 334 0.0 0.0 0.00 0.00 0.00 96 1015.1
20260903072721 77 335 0.0 0.0 0.00 0.00 0.00 96 1014.9
20260903072217 77 341 0.0 0.0 0.00 0.00 0.00 96 1015.2
20260903071713 77 341 0.0 0.0 0.00 0.00 0.00 96 1014.8
20260903071209 77 341 0.0 0.0 0.00 0.00 0.00 96 1015.0
20260903070708 77 341 0.0 0.0 0.00 0.00 0.00 96 1015.3
20260903070204 77 349 0.0 0.0 0.00 0.00 0.00 96 1015.2
20260903065659 77 337 0.0 0.0 0.00 0.00 0.00 96 1015.2
20260903065153 77 340 0.0 0.0 0.00 0.00 0.00 96 1015.0
20260903064652 77 353 0.0 0.0 0.00 0.00 0.00 96 1015.1
20260903064148 77 341 0.0 0.0 0.00 0.00 0.00 96 1015.1
20260903063643 78 0 0.0 0.0 0.00 0.00 0.00 96 1015.1
20260903063138 77 324 0.0 0.0 0.00 0.00 0.00 96 1015.0
20260903062634 78 2 0.0 0.0 0.00 0.00 0.00 96 1015.1
20260903062129 78 357 0.0 0.0 0.00 0.00 0.00 96 1015.3
20260903061624 78 358 0.0 0.0 0.00 0.00 0.00 96 1015.1
20260903061123 78 22 0.0 0.0 0.00 0.00 0.00 96 1015.1
20260903060619 78 26 0.0 0.0 0.00 0.00 0.00 96 1015.2
20260903060114 78 3 0.0 0.0 0.00 0.00 0.00 96 1014.9
20260903055611 78 315 0.0 0.0 0.00 0.00 0.00 96 1015.3
20260903055110 78 25 0.0 0.0 0.00 0.00 0.00 96 1015.2
20260903054605 78 25 0.0 0.0 0.00 0.00 0.00 96 1015.1
20260903054101 78 25 0.0 0.0 0.00 0.00 0.00 96 1015.3
20260903053556 78 25 0.0 0.0 0.00 0.00 0.00 96 1015.3
20260903053052 78 25 0.0 0.0 0.00 0.00 0.00 96 1015.4
20260903052548 78 25 0.0 0.0 0.00 0.00 0.00 96 1015.0
20260903052043 78 27 0.0 0.0 0.00 0.00 0.00 96 1015.4
20260903051543 78 31 0.0 0.0 0.00 0.00 0.00 96 1015.3
20260903051039 78 31 0.0 0.0 0.00 0.00 0.00 96 1015.5
20260903050538 78 31 0.0 0.0 0.00 0.00 0.00 96 1015.5
20260903050033 78 31 0.0 0.0 0.00 0.00 0.00 96 1015.3
20260903045532 79 31 0.0 0.0 0.00 0.00 0.00 96 1015.4
20260903045030 79 3 0.0 0.0 0.00 0.00 0.00 96 1015.4
20260903044525 79 3 0.0 0.0 0.00 0.00 0.00 96 1015.5
20260903044020 79 1 0.0 0.0 0.00 0.00 0.00 96 1015.7
20260903043516 79 1 0.0 0.0 0.00 0.00 0.00 96 1015.5
20260903043015 79 0 0.0 0.0 0.00 0.00 0.00 96 1015.7
20260903042510 79 12 0.0 0.0 0.00 0.00 0.00 96 1015.5
20260903042006 79 12 0.0 0.0 0.00 0.00 0.00 95 1015.5
20260903041503 79 12 0.0 0.0 0.00 0.00 0.00 95 1015.6
20260903040957 80 12 0.0 0.0 0.00 0.00 0.00 95 1015.4
20260903040456 79 12 0.0 0.0 0.00 0.00 0.00 95 1015.5
20260903035953 80 12 0.0 0.0 0.00 0.00 0.00 95 1015.4
20260903035448 80 12 0.0 0.0 0.00 0.00 0.00 95 1015.4
20260903034943 80 12 0.0 0.0 0.00 0.00 0.00 95 1015.2
20260903034438 80 12 0.0 0.0 0.00 0.00 0.00 95 1015.4
20260903033933 80 12 0.0 0.0 0.00 0.00 0.00 95 1015.4
20260903033428 80 12 0.0 0.0 0.00 0.00 0.00 95 1015.6
20260903032923 80 12 0.0 0.0 0.00 0.00 0.00 95 1015.6
20260903032419 80 22 0.0 0.0 0.00 0.00 0.00 95 1015.2
20260903031914 80 21 0.0 0.0 0.00 0.00 0.00 95 1015.3
20260903031413 80 21 0.0 0.0 0.00 0.00 0.00 95 1015.1
20260903030909 80 21 0.0 0.0 0.00 0.00 0.00 95 1015.3
20260903030405 80 30 0.0 0.0 0.00 0.00 0.00 95 1015.4
20260903025900 80 4 0.0 0.0 0.00 0.00 0.00 95 1015.4
20260903025355 80 4 0.0 0.0 0.00 0.00 0.00 95 1015.3
20260903024855 80 4 0.0 0.0 0.00 0.00 0.00 95 1015.4
20260903024350 80 357 0.0 0.0 0.00 0.00 0.00 95 1015.6
20260903023845 80 356 0.0 0.0 0.00 0.00 0.00 94 1015.5
20260903023341 80 24 0.0 0.0 0.00 0.00 0.00 94 1015.6
20260903022836 80 24 0.0 0.0 0.00 0.00 0.00 94 1015.6
20260903022335 80 24 0.0 0.0 0.00 0.00 0.00 94 1015.9
20260903021834 80 5 0.0 0.0 0.00 0.00 0.00 94 1015.8
20260903021330 80 335 0.0 0.0 0.00 0.00 0.00 94 1016.1
20260903020829 80 13 0.0 0.0 0.00 0.00 0.00 94 1016.1
20260903020324 80 17 0.0 0.0 0.00 0.00 0.00 94 1016.0
20260903015819 80 17 0.0 0.0 0.00 0.00 0.00 94 1016.0
20260903015315 80 17 0.0 0.0 0.00 0.00 0.00 93 1016.0
20260903014810 80 17 0.0 0.0 0.00 0.00 0.00 93 1015.8
20260903014310 81 16 0.0 0.0 0.00 0.00 0.00 93 1015.7
20260903013805 81 70 0.0 0.0 0.00 0.00 0.00 93 1015.9
20260903013304 81 352 0.0 0.0 0.00 0.00 0.00 93 1015.7
20260903012803 81 349 0.0 0.0 0.00 0.00 0.00 93 1015.9
20260903012258 81 48 0.0 0.0 0.00 0.00 0.00 92 1015.7
20260903011757 81 25 0.0 0.0 0.00 0.00 0.00 92 1015.8
20260903011256 81 21 0.0 0.0 0.00 0.00 0.00 92 1015.8
20260903010752 81 21 0.0 0.0 0.00 0.00 0.00 92 1015.8
20260903010247 81 325 0.0 0.0 0.00 0.00 0.00 92 1015.3
20260903005746 81 100 0.0 0.0 0.00 0.00 0.00 92 1014.9
20260903005241 82 288 0.0 0.0 0.00 0.00 0.00 91 1014.9
20260903004737 82 14 0.0 0.0 0.00 0.00 0.00 91 1014.8
20260903004232 82 14 0.0 0.0 0.00 0.00 0.00 91 1014.6
20260903003727 82 23 0.0 0.0 0.00 0.00 0.00 90 1014.7
20260903003222 82 9 0.0 0.0 0.00 0.00 0.00 90 1014.9
20260903002717 82 303 0.0 0.0 0.00 0.00 0.00 90 1014.9
20260903002211 82 18 0.0 0.0 0.00 0.00 0.00 89 1015.0
20260903001706 83 43 0.0 0.0 0.00 0.00 0.00 89 1014.9
20260903001201 83 80 0.0 0.0 0.00 0.00 0.00 88 1015.4
20260903000656 83 42 0.0 0.0 0.00 0.00 0.00 89 1015.4
20260903000155 83 29 0.0 0.0 0.00 0.00 0.00 89 1015.2
20260902235654 83 41 0.0 0.0 0.00 0.00 0.00 89 1015.3
20260902235144 83 55 0.0 0.0 0.00 0.00 0.00 89 1015.6
20260902234644 84 13 0.9 0.9 0.00 0.00 0.00 89 1015.8
20260902234142 84 52 0.0 0.0 0.00 0.00 0.00 89 1015.5
20260902233638 84 36 0.0 0.9 0.00 0.00 0.00 88 1015.6
20260902233137 84 79 0.9 1.7 0.00 0.00 0.00 88 1015.6
20260902232636 84 94 0.9 1.7 0.00 0.00 0.00 88 1015.7
20260902232136 85 80 0.0 0.0 0.00 0.00 0.00 88 1015.9
20260902231636 85 92 0.9 1.7 0.00 0.00 0.00 87 1016.2
20260902231130 85 100 0.9 1.7 0.00 0.00 0.00 88 1016.2
20260902230626 86 129 1.7 1.7 0.00 0.00 0.00 87 1016.2
20260902230124 86 123 1.7 1.7 0.00 0.00 0.00 85 1015.8
20260902225620 85 123 1.7 2.6 0.00 0.00 0.00 86 1015.8
20260902225119 85 80 0.0 0.0 0.00 0.00 0.00 86 1015.9
20260902224618 85 125 0.9 0.9 0.00 0.00 0.00 86 1015.9
20260902224114 85 87 0.9 0.9 0.00 0.00 0.00 87 1015.7
20260902223610 85 22 0.0 0.0 0.00 0.00 0.00 86 1015.7
20260902223109 85 13 1.7 1.7 0.00 0.00 0.00 86 1015.7
20260902222608 85 358 0.9 1.7 0.00 0.00 0.00 85 1015.8
20260902222107 85 76 1.7 2.6 0.00 0.00 0.00 85 1015.6
20260902221602 86 62 0.9 0.9 0.00 0.00 0.00 85 1015.5
20260902221101 86 54 0.0 0.0 0.00 0.00 0.00 85 1015.4
20260902220557 86 66 0.9 1.7 0.00 0.00 0.00 84 1015.7
20260902220052 86 76 0.9 1.7 0.00 0.00 0.00 84 1015.5
20260902215548 86 76 0.9 0.9 0.00 0.00 0.00 85 1015.3
20260902215043 86 82 0.9 0.9 0.00 0.00 0.00 85 1015.5
20260902214538 86 35 0.0 0.9 0.00 0.00 0.00 86 1015.6
20260902214037 86 23 0.9 0.9 0.00 0.00 0.00 85 1015.6
20260902213533 86 31 0.0 0.9 0.00 0.00 0.00 85 1015.7
20260902213032 86 25 0.9 0.9 0.00 0.00 0.00 85 1015.6
20260902212528 87 54 0.0 0.0 0.00 0.00 0.00 84 1015.6
20260902212023 87 54 0.0 0.9 0.00 0.00 0.00 82 1015.8
20260902211519 88 36 1.7 1.7 0.00 0.00 0.00 82 1015.5
20260902211015 88 92 1.7 1.7 0.00 0.00 0.00 81 1015.2
20260902210514 89 52 0.0 0.0 0.00 0.00 0.00 82 1015.3
20260902210014 89 49 0.9 0.9 0.00 0.00 0.00 81 1015.2
20260902205508 89 79 0.9 1.7 0.00 0.00 0.00 80 1015.1
20260902205004 89 103 2.6 2.6 0.00 0.00 0.00 79 1014.8
20260902204503 89 84 2.6 4.3 0.00 0.00 0.00 79 1014.6
20260902203958 90 75 1.7 1.7 0.00 0.00 0.00 79 1014.5
20260902203454 92 90 1.7 1.7 0.00 0.00 0.00 76 1014.6
20260902202952 92 134 1.7 1.7 0.00 0.00 0.00 74 1014.6
20260902202449 92 92 0.0 0.0 0.00 0.00 0.00 71 1014.6
20260902201945 93 85 0.9 0.9 0.00 0.00 0.00 74 1014.8
20260902201440 93 18 0.0 0.9 0.00 0.00 0.00 73 1014.7
20260902200940 93 80 0.9 1.7 0.00 0.00 0.00 72 1014.7
20260902200435 93 71 0.9 0.9 0.00 0.00 0.00 73 1014.9
20260902195931 93 132 0.0 0.9 0.00 0.00 0.00 73 1014.9
20260902195426 92 145 0.9 0.9 0.00 0.00 0.00 75 1015.0
20260902194920 92 155 0.0 0.9 0.00 0.00 0.00 73 1015.0
20260902194420 93 152 0.9 0.9 0.00 0.00 0.00 73 1015.3
20260902193915 91 134 0.0 0.9 0.00 0.00 0.00 75 1015.2
20260902193411 91 150 0.0 0.9 0.00 0.00 0.00 75 1015.3
20260902192909 91 314 0.0 0.0 0.00 0.00 0.00 76 1015.4
20260902192409 91 150 0.0 0.0 0.00 0.00 0.00 76 1015.3
20260902191908 91 196 0.0 0.0 0.00 0.00 0.00 75 1015.2
20260902191358 92 143 0.0 0.9 0.00 0.00 0.00 74 1015.5
20260902190858 92 152 0.9 1.7 0.00 0.00 0.00 73 1015.6
20260902190353 92 113 1.7 1.7 0.00 0.00 0.00 72 1015.6
20260902185849 92 208 0.9 0.9 0.00 0.00 0.00 72 1015.6
20260902185345 93 245 0.9 0.9 0.00 0.00 0.00 72 1015.4
20260902184840 92 177 0.9 1.7 0.00 0.00 0.00 71 1015.6
20260902184335 93 122 0.9 0.9 0.00 0.00 0.00 75 1015.5
20260902183831 93 199 0.9 1.7 0.00 0.00 0.00 70 1015.5
20260902183327 93 176 0.9 0.9 0.00 0.00 0.00 70 1015.4
20260902182822 93 183 0.9 1.7 0.00 0.00 0.00 70 1015.7